Time,TemperatureF,DewpointF,PressureIn,WindDirection,WindDirectionDegrees,WindSpeedMPH,WindSpeedGustMPH,Humidity,HourlyPrecipIn,Conditions,Clouds,dailyrainin,SolarRadiationWatts/m^2,SoftwareType,DateUTC
2013-03-09 00:03:00,21.0,19.0,-100.00,NNE,33,1.0,3.0,93,0.00,,,0.35,0.000000,,2013-03-09 05:03:00,
2013-03-09 00:12:00,21.0,19.0,-100.00,NNE,33,1.0,3.0,93,0.00,,,0.35,0.000000,,2013-03-09 05:12:00,
2013-03-09 00:32:00,18.0,16.0,-100.00,North,8,2.0,3.0,91,0.00,,,0.35,0.000000,,2013-03-09 05:32:00,
2013-03-09 00:43:00,18.0,16.0,-100.00,North,8,2.0,3.0,91,0.00,,,0.35,0.000000,,2013-03-09 05:43:00,
2013-03-09 00:53:00,18.0,16.0,-100.00,North,8,2.0,3.0,91,0.00,,,0.35,0.000000,,2013-03-09 05:53:00,
2013-03-09 01:02:00,18.0,16.0,-100.00,North,8,2.0,3.0,91,0.00,,,0.35,0.000000,,2013-03-09 06:02:00,
2013-03-09 01:11:00,18.0,16.0,-100.00,North,8,2.0,3.0,91,0.00,,,0.35,0.000000,,2013-03-09 06:11:00,
2013-03-09 01:32:00,16.0,14.0,-100.00,ENE,59,1.0,3.0,90,0.00,,,0.35,0.000000,,2013-03-09 06:32:00,
2013-03-09 01:42:00,16.0,14.0,-100.00,ENE,59,1.0,3.0,90,0.00,,,0.35,0.000000,,2013-03-09 06:42:00,
2013-03-09 01:52:00,16.0,14.0,-100.00,ENE,59,1.0,3.0,90,0.00,,,0.35,0.000000,,2013-03-09 06:52:00,
2013-03-09 02:01:00,16.0,14.0,-100.00,ENE,59,1.0,3.0,90,0.00,,,0.35,0.000000,,2013-03-09 07:01:00,
2013-03-09 02:11:00,16.0,14.0,-100.00,ENE,59,1.0,3.0,90,0.00,,,0.35,0.000000,,2013-03-09 07:11:00,
2013-03-09 02:32:00,15.0,12.0,-100.00,NW,318,1.0,3.0,89,0.00,,,0.35,0.000000,,2013-03-09 07:32:00,
2013-03-09 02:42:00,15.0,12.0,-100.00,NW,318,1.0,3.0,89,0.00,,,0.35,0.000000,,2013-03-09 07:42:00,
2013-03-09 02:52:00,15.0,12.0,-100.00,NW,318,1.0,3.0,89,0.00,,,0.35,0.000000,,2013-03-09 07:52:00,
2013-03-09 03:01:00,15.0,12.0,-100.00,NW,318,1.0,3.0,89,0.00,,,0.35,0.000000,,2013-03-09 08:01:00,
2013-03-09 03:11:00,15.0,12.0,-100.00,NW,318,1.0,3.0,89,0.00,,,0.35,0.000000,,2013-03-09 08:11:00,
2013-03-09 03:42:00,13.0,10.0,-100.00,NNW,329,1.0,3.0,88,0.00,,,0.35,0.000000,,2013-03-09 08:42:00,
2013-03-09 03:52:00,13.0,10.0,-100.00,NNW,329,1.0,3.0,88,0.00,,,0.35,0.000000,,2013-03-09 08:52:00,
2013-03-09 04:02:00,13.0,10.0,-100.00,NNW,329,1.0,3.0,88,0.00,,,0.35,0.000000,,2013-03-09 09:02:00,
2013-03-09 04:12:00,13.0,10.0,-100.00,NNW,329,1.0,3.0,88,0.00,,,0.35,0.000000,,2013-03-09 09:12:00,
2013-03-09 04:32:00,12.0,9.0,-100.00,NW,313,1.0,3.0,87,0.00,,,0.35,0.000000,,2013-03-09 09:32:00,
2013-03-09 04:42:00,12.0,9.0,-100.00,NW,313,1.0,3.0,87,0.00,,,0.35,0.000000,,2013-03-09 09:42:00,
2013-03-09 04:52:00,12.0,9.0,-100.00,NW,313,1.0,3.0,87,0.00,,,0.35,0.000000,,2013-03-09 09:52:00,
2013-03-09 05:01:00,12.0,9.0,-100.00,NW,313,1.0,3.0,87,0.00,,,0.35,0.000000,,2013-03-09 10:01:00,
2013-03-09 05:11:00,12.0,9.0,-100.00,NW,313,1.0,3.0,87,0.00,,,0.35,0.000000,,2013-03-09 10:11:00,
2013-03-09 05:42:00,12.0,9.0,-100.00,NE,47,2.0,3.0,86,0.00,,,0.35,0.000000,,2013-03-09 10:42:00,
2013-03-09 05:52:00,12.0,9.0,-100.00,NE,47,2.0,3.0,86,0.00,,,0.35,0.000000,,2013-03-09 10:52:00,
2013-03-09 06:01:00,12.0,9.0,-100.00,NE,47,2.0,3.0,86,0.00,,,0.35,0.000000,,2013-03-09 11:01:00,
2013-03-09 06:11:00,12.0,9.0,-100.00,NE,47,2.0,3.0,86,0.00,,,0.35,0.000000,,2013-03-09 11:11:00,
2013-03-09 06:32:00,10.0,6.0,-100.00,NNW,332,1.0,3.0,85,0.00,,,0.35,1.000000,,2013-03-09 11:32:00,
2013-03-09 06:42:00,10.0,6.0,-100.00,NNW,332,1.0,3.0,85,0.00,,,0.35,1.000000,,2013-03-09 11:42:00,
2013-03-09 06:52:00,10.0,6.0,-100.00,NNW,332,1.0,3.0,85,0.00,,,0.35,1.000000,,2013-03-09 11:52:00,
2013-03-09 07:02:00,10.0,6.0,-100.00,NNW,332,1.0,3.0,85,0.00,,,0.35,1.000000,,2013-03-09 12:02:00,
2013-03-09 07:11:00,10.0,6.0,-100.00,NNW,332,1.0,3.0,85,0.00,,,0.35,1.000000,,2013-03-09 12:11:00,
2013-03-09 07:32:00,11.0,7.0,-100.00,North,349,1.0,3.0,85,0.00,,,0.35,13.000000,,2013-03-09 12:32:00,
2013-03-09 07:42:00,11.0,7.0,-100.00,North,349,1.0,3.0,85,0.00,,,0.35,13.000000,,2013-03-09 12:42:00,
2013-03-09 07:52:00,11.0,7.0,-100.00,North,349,1.0,3.0,85,0.00,,,0.35,13.000000,,2013-03-09 12:52:00,
2013-03-09 08:02:00,11.0,7.0,-100.00,North,349,1.0,3.0,85,0.00,,,0.35,13.000000,,2013-03-09 13:02:00,
2013-03-09 08:11:00,11.0,7.0,-100.00,North,349,1.0,3.0,85,0.00,,,0.35,13.000000,,2013-03-09 13:11:00,
2013-03-09 08:32:00,21.0,17.0,-100.00,North,4,0.0,2.0,86,0.00,,,0.35,119.000000,,2013-03-09 13:32:00,
2013-03-09 08:42:00,21.0,17.0,-100.00,North,4,0.0,2.0,86,0.00,,,0.35,119.000000,,2013-03-09 13:42:00,
2013-03-09 08:52:00,21.0,17.0,-100.00,North,4,0.0,2.0,86,0.00,,,0.35,119.000000,,2013-03-09 13:52:00,
2013-03-09 09:01:00,21.0,17.0,-100.00,North,4,0.0,2.0,86,0.00,,,0.35,119.000000,,2013-03-09 14:01:00,
2013-03-09 09:11:00,21.0,17.0,-100.00,North,4,0.0,2.0,86,0.00,,,0.35,119.000000,,2013-03-09 14:11:00,
2013-03-09 09:32:00,36.0,29.0,-100.00,SSE,162,0.0,3.0,76,0.01,,,0.36,375.000000,,2013-03-09 14:32:00,
2013-03-09 09:42:00,36.0,29.0,-100.00,SSE,162,0.0,3.0,76,0.01,,,0.36,375.000000,,2013-03-09 14:42:00,
2013-03-09 09:52:00,36.0,29.0,-100.00,SSE,162,0.0,3.0,76,0.01,,,0.36,375.000000,,2013-03-09 14:52:00,
2013-03-09 10:02:00,36.0,29.0,-100.00,SSE,162,0.0,3.0,76,0.01,,,0.36,375.000000,,2013-03-09 15:02:00,
2013-03-09 10:12:00,36.0,29.0,-100.00,SSE,162,0.0,3.0,76,0.01,,,0.36,375.000000,,2013-03-09 15:12:00,
2013-03-09 10:42:00,42.0,26.0,-100.00,North,5,4.0,6.0,52,0.01,,,0.37,543.000000,,2013-03-09 15:42:00,
2013-03-09 10:52:00,42.0,26.0,-100.00,North,5,4.0,6.0,52,0.01,,,0.37,543.000000,,2013-03-09 15:52:00,
2013-03-09 11:01:00,42.0,26.0,-100.00,North,5,4.0,6.0,52,0.01,,,0.37,543.000000,,2013-03-09 16:01:00,
2013-03-09 11:11:00,42.0,26.0,-100.00,North,5,4.0,6.0,52,0.01,,,0.37,543.000000,,2013-03-09 16:11:00,
2013-03-09 11:32:00,45.0,24.0,-100.00,NNE,14,4.0,7.0,43,0.02,,,0.39,658.000000,,2013-03-09 16:32:00,
2013-03-09 11:42:00,45.0,24.0,-100.00,NNE,14,4.0,7.0,43,0.02,,,0.39,658.000000,,2013-03-09 16:42:00,
2013-03-09 11:52:00,45.0,24.0,-100.00,NNE,14,4.0,7.0,43,0.02,,,0.39,658.000000,,2013-03-09 16:52:00,
2013-03-09 12:01:00,45.0,24.0,-100.00,NNE,14,4.0,7.0,43,0.02,,,0.39,658.000000,,2013-03-09 17:01:00,
2013-03-09 12:11:00,45.0,24.0,-100.00,NNE,14,4.0,7.0,43,0.02,,,0.39,658.000000,,2013-03-09 17:11:00,
2013-03-09 12:32:00,50.0,26.0,-100.00,NNW,341,4.0,6.0,39,0.00,,,0.39,717.000000,,2013-03-09 17:32:00,
2013-03-09 12:42:00,50.0,26.0,-100.00,NNW,341,4.0,6.0,39,0.00,,,0.39,717.000000,,2013-03-09 17:42:00,
2013-03-09 12:52:00,50.0,26.0,-100.00,NNW,341,4.0,6.0,39,0.00,,,0.39,717.000000,,2013-03-09 17:52:00,
2013-03-09 13:02:00,50.0,26.0,-100.00,NNW,341,4.0,6.0,39,0.00,,,0.39,717.000000,,2013-03-09 18:02:00,
2013-03-09 13:11:00,50.0,26.0,-100.00,NNW,341,4.0,6.0,39,0.00,,,0.39,717.000000,,2013-03-09 18:11:00,
2013-03-09 13:32:00,52.0,26.0,-100.00,NNW,343,3.0,8.0,36,0.00,,,0.39,716.000000,,2013-03-09 18:32:00,
2013-03-09 13:42:00,52.0,26.0,-100.00,NNW,343,3.0,8.0,36,0.00,,,0.39,716.000000,,2013-03-09 18:42:00,
2013-03-09 13:52:00,52.0,26.0,-100.00,NNW,343,3.0,8.0,36,0.00,,,0.39,716.000000,,2013-03-09 18:52:00,
2013-03-09 14:02:00,52.0,26.0,-100.00,NNW,343,3.0,8.0,36,0.00,,,0.39,716.000000,,2013-03-09 19:02:00,
2013-03-09 14:12:00,52.0,26.0,-100.00,NNW,343,3.0,8.0,36,0.00,,,0.39,716.000000,,2013-03-09 19:12:00,
2013-03-09 14:42:00,53.0,25.0,-100.00,WNW,301,4.0,7.0,34,0.00,,,0.34,651.000000,,2013-03-09 19:42:00,
2013-03-09 14:52:00,53.0,25.0,-100.00,WNW,301,4.0,7.0,34,0.00,,,0.34,651.000000,,2013-03-09 19:52:00,
2013-03-09 15:02:00,53.0,25.0,-100.00,WNW,301,4.0,7.0,34,0.00,,,0.34,651.000000,,2013-03-09 20:02:00,
2013-03-09 15:11:00,53.0,25.0,-100.00,WNW,301,4.0,7.0,34,0.00,,,0.34,651.000000,,2013-03-09 20:11:00,
2013-03-09 15:32:00,53.0,22.0,-100.00,WNW,300,3.0,8.0,30,0.00,,,0.16,533.000000,,2013-03-09 20:32:00,
2013-03-09 15:42:00,53.0,22.0,-100.00,WNW,300,3.0,8.0,30,0.00,,,0.16,533.000000,,2013-03-09 20:42:00,
2013-03-09 15:52:00,53.0,22.0,-100.00,WNW,300,3.0,8.0,30,0.00,,,0.16,533.000000,,2013-03-09 20:52:00,
2013-03-09 16:02:00,53.0,22.0,-100.00,WNW,300,3.0,8.0,30,0.00,,,0.16,533.000000,,2013-03-09 21:02:00,
2013-03-09 16:12:00,53.0,22.0,-100.00,WNW,300,3.0,8.0,30,0.00,,,0.16,533.000000,,2013-03-09 21:12:00,
2013-03-09 16:32:00,53.0,23.0,-100.00,North,359,4.0,8.0,31,0.00,,,0.06,371.000000,,2013-03-09 21:32:00,
2013-03-09 16:42:00,53.0,23.0,-100.00,North,359,4.0,8.0,31,0.00,,,0.06,371.000000,,2013-03-09 21:42:00,
2013-03-09 16:52:00,53.0,23.0,-100.00,North,359,4.0,8.0,31,0.00,,,0.06,371.000000,,2013-03-09 21:52:00,
2013-03-09 17:01:00,53.0,23.0,-100.00,North,359,4.0,8.0,31,0.00,,,0.06,371.000000,,2013-03-09 22:01:00,
2013-03-09 17:11:00,53.0,23.0,-100.00,North,359,4.0,8.0,31,0.00,,,0.06,371.000000,,2013-03-09 22:11:00,
2013-03-09 17:42:00,49.0,23.0,-100.00,North,359,3.0,7.0,36,0.00,,,0.05,187.000000,,2013-03-09 22:42:00,
2013-03-09 17:52:00,49.0,23.0,-100.00,North,359,3.0,7.0,36,0.00,,,0.05,187.000000,,2013-03-09 22:52:00,
2013-03-09 18:01:00,49.0,23.0,-100.00,North,359,3.0,7.0,36,0.00,,,0.05,187.000000,,2013-03-09 23:01:00,
2013-03-09 18:11:00,49.0,23.0,-100.00,North,359,3.0,7.0,36,0.00,,,0.05,187.000000,,2013-03-09 23:11:00,
2013-03-09 18:32:00,35.0,27.0,-100.00,North,2,1.0,6.0,71,0.00,,,0.04,16.000000,,2013-03-09 23:32:00,
2013-03-09 18:42:00,35.0,27.0,-100.00,North,2,1.0,6.0,71,0.00,,,0.04,16.000000,,2013-03-09 23:42:00,
2013-03-09 18:52:00,35.0,27.0,-100.00,North,2,1.0,6.0,71,0.00,,,0.04,16.000000,,2013-03-09 23:52:00,
2013-03-09 19:02:00,35.0,27.0,-100.00,North,2,1.0,6.0,71,0.00,,,0.04,16.000000,,2013-03-10 00:02:00,
2013-03-09 19:12:00,35.0,27.0,-100.00,North,2,1.0,6.0,71,0.00,,,0.04,16.000000,,2013-03-10 00:12:00,
2013-03-09 19:32:00,31.0,27.0,-100.00,NW,313,0.0,0.0,85,0.00,,,0.04,0.000000,,2013-03-10 00:32:00,
2013-03-09 19:43:00,31.0,27.0,-100.00,NW,313,0.0,0.0,85,0.00,,,0.04,0.000000,,2013-03-10 00:43:00,
2013-03-09 19:52:00,31.0,27.0,-100.00,NW,313,0.0,0.0,85,0.00,,,0.04,0.000000,,2013-03-10 00:52:00,
2013-03-09 20:01:00,31.0,27.0,-100.00,NW,313,0.0,0.0,85,0.00,,,0.04,0.000000,,2013-03-10 01:01:00,
2013-03-09 20:11:00,31.0,27.0,-100.00,NW,313,0.0,0.0,85,0.00,,,0.04,0.000000,,2013-03-10 01:11:00,
2013-03-09 20:42:00,28.0,25.0,-100.00,NNW,345,2.0,4.0,90,0.00,,,-99.99,0.000000,,2013-03-10 01:42:00,
2013-03-09 20:52:00,28.0,25.0,-100.00,NNW,345,2.0,4.0,90,0.00,,,-99.99,0.000000,,2013-03-10 01:52:00,
2013-03-09 21:01:00,28.0,25.0,-100.00,NNW,345,2.0,4.0,90,0.00,,,-99.99,0.000000,,2013-03-10 02:01:00,
2013-03-09 21:11:00,28.0,25.0,-100.00,NNW,345,2.0,4.0,90,0.00,,,-99.99,0.000000,,2013-03-10 02:11:00,
2013-03-09 21:42:00,26.0,24.0,-100.00,SW,214,2.0,3.0,93,0.00,,,-99.99,0.000000,,2013-03-10 02:42:00,
2013-03-09 21:52:00,26.0,24.0,-100.00,SW,214,2.0,3.0,93,0.00,,,-99.99,0.000000,,2013-03-10 02:52:00,
2013-03-09 22:02:00,26.0,24.0,-100.00,SW,214,2.0,3.0,93,0.00,,,-99.99,0.000000,,2013-03-10 03:02:00,
2013-03-09 22:12:00,26.0,24.0,-100.00,SW,214,2.0,3.0,93,0.00,,,-99.99,0.000000,,2013-03-10 03:12:00,
2013-03-09 22:32:00,25.0,23.0,-100.00,NE,39,1.0,4.0,93,0.00,,,0.04,0.000000,,2013-03-10 03:32:00,
2013-03-09 22:42:00,25.0,23.0,-100.00,NE,39,1.0,4.0,93,0.00,,,0.04,0.000000,,2013-03-10 03:42:00,
2013-03-09 22:52:00,25.0,23.0,-100.00,NE,39,1.0,4.0,93,0.00,,,0.04,0.000000,,2013-03-10 03:52:00,
2013-03-09 23:01:00,25.0,23.0,-100.00,NE,39,1.0,4.0,93,0.00,,,0.04,0.000000,,2013-03-10 04:01:00,
2013-03-09 23:11:00,25.0,23.0,-100.00,NE,39,1.0,4.0,93,0.00,,,0.04,0.000000,,2013-03-10 04:11:00,
2013-03-09 23:32:00,24.0,22.0,-100.00,NNE,17,0.0,5.0,93,0.00,,,0.04,0.000000,,2013-03-10 04:32:00,
2013-03-09 23:42:00,24.0,22.0,-100.00,NNE,17,0.0,5.0,93,0.00,,,0.04,0.000000,,2013-03-10 04:42:00,
2013-03-09 23:52:00,24.0,22.0,-100.00,NNE,17,0.0,5.0,93,0.00,,,0.04,0.000000,,2013-03-10 04:52:00,